QPF
0.00 0.00 0.00 0.00 0.00 0.00 0.00 0.00 0.00 0.00 0.00 0.00 0.00 0.00 0.00 0.00 0.00 0.00 0.00 0.00 0.00 0.00 0.00 0.00 0.00 0.00 0.00 0.00 0.00 0.00 0.00 0.00 0.00 0.00 0.00 0.00 0.00 0.00 0.00 0.00 0.00 0.00 0.00 0.00
0.00 0.00 0.00 0.00 0.00 0.00 0.00 0.00 0.00 0.00 0.00 0.00 0.00 0.00 0.00 0.00 0.00 0.00 0.00 0.00 0.00 0.00 0.00 0.00 0.00 0.00 0.01 0.01 0.00 0.00 0.00 0.00 0.00 0.00 0.00 0.00 0.00 0.00 0.00 0.00 0.00 0.00 0.00 0.00
0.00 0.00 0.00 0.00 0.00 0.00 0.00 0.00 0.00 0.00 0.00 0.00 0.00 0.00 0.00 0.00 0.00 0.00 0.00 0.00 0.00 0.00 0.00 0.00 0.00 0.00 0.01 0.02 0.00 0.00 0.00 0.00 0.00 0.00 0.00 0.01 0.03 0.03 0.01 0.00 0.00 0.00 0.00 0.01
0.00 0.00 0.00 0.00 0.00 0.00 0.00 0.00 0.00 0.00 0.02 0.01 0.01 0.02 0.00 0.00 0.00 0.00 0.00 0.00 0.00 0.00 0.00 0.00 0.00 0.00 0.00 0.00 0.01 0.00 0.00 0.00 0.00 0.01 0.01 0.01 0.04 0.10 0.08 0.01 0.00 0.01 0.02 0.02
0.00 0.00 0.00 0.01 0.00 0.00 0.00 0.00 0.00 0.00 0.00 0.04 0.01 0.06 0.00 0.00 0.00 0.00 0.00 0.00 0.00 0.00 0.00 0.00 0.00 0.00 0.00 0.00 0.00 0.00 0.00 0.00 0.00 0.01 0.04 0.02 0.02 0.19 0.27 0.16 0.05 0.04 0.07 0.07
0.00 0.00 0.00 0.00 0.00 0.00 0.00 0.00 0.00 0.00 0.03 0.07 0.01 0.07 0.01 0.00 0.01 0.00 0.00 0.00 0.00 0.00 0.02 0.04 0.05 0.02 0.02 0.02 0.00 0.00 0.00 0.00 0.00 0.00 0.07 0.09 0.04 0.08 0.28 0.34 0.21 0.09 0.06 0.05
0.00 0.00 0.00 0.00 0.00 0.00 0.00 0.01 0.01 0.01 0.05 0.04 0.05 0.06 0.01 0.00 0.01 0.01 0.02 0.04 0.15 0.13 0.05 0.19 0.14 0.12 0.12 0.08 0.08 0.05 0.06 0.04 0.02 0.01 0.08 0.17 0.20 0.12 0.13 0.18 0.19 0.20 0.10 0.04
0.01 0.00 0.00 0.00 0.00 0.00 0.00 0.04 0.08 0.05 0.08 0.09 0.05 0.06 0.06 0.06 0.09 0.20 0.31 0.34 0.34 0.28 0.21 0.19 0.20 0.19 0.20 0.18 0.04 0.12 0.33 0.17 0.16 0.08 0.16 0.24 0.36 0.29 0.31 0.22 0.24 0.23 0.22 0.16
0.02 0.00 0.00 0.00 0.00 0.00 0.01 0.06 0.05 0.08 0.07 0.10 0.04 0.05 0.12 0.21 0.28 0.36 0.39 0.34 0.28 0.30 0.40 0.39 0.40 0.24 0.20 0.30 0.20 0.69 0.49 0.42 0.42 0.29 0.32 0.61 0.62 0.39 0.43 0.31 0.25 0.30 0.28 0.21
0.00 0.00 0.00 0.00 0.00 0.00 0.01 0.04 0.05 0.04 0.03 0.07 0.04 0.03 0.10 0.31 0.40 0.39 0.29 0.22 0.27 0.31 0.26 0.27 0.30 0.36 0.49 0.59 0.72 0.77 0.33 0.45 0.50 0.45 0.37 0.35 0.48 0.33 0.26 0.20 0.20 0.19 0.19 0.19
0.00 0.00 0.00 0.00 0.00 0.00 0.00 0.03 0.03 0.02 0.01 0.05 0.03 0.04 0.16 0.35 0.42 0.32 0.14 0.09 0.10 0.09 0.09 0.08 0.14 0.31 0.49 0.59 0.56 0.37 0.34 0.21 0.19 0.24 0.24 0.22 0.18 0.14 0.12 0.14 0.16 0.11 0.09 0.10
0.00 0.00 0.00 0.00 0.00 0.00 0.00 0.00 0.01 0.01 0.00 0.00 0.00 0.09 0.25 0.30 0.27 0.13 0.04 0.01 0.00 0.00 0.00 0.00 0.01 0.02 0.06 0.09 0.09 0.12 0.15 0.10 0.11 0.14 0.15 0.14 0.03 0.02 0.02 0.02 0.02 0.01 0.01 0.00
0.00 0.00 0.00 0.00 0.00 0.00 0.00 0.00 0.00 0.00 0.00 0.00 0.00 0.09 0.18 0.08 0.03 0.00 0.00 0.00 0.00 0.00 0.00 0.00 0.00 0.00 0.00 0.00 0.00 0.00 0.00 0.00 0.00 0.00 0.00 0.00 0.00 0.00 0.00 0.00 0.00 0.00 0.00 0.00
0.00 0.00 0.00 0.00 0.00 0.00 0.00 0.00 0.00 0.00 0.00 0.00 0.00 0.04 0.07 0.02 0.00 0.00 0.00 0.00 0.00 0.00 0.00 0.00 0.00 0.00 0.00 0.00 0.00 0.00 0.00 0.00 0.00 0.00 0.00 0.00 0.00 0.00 0.00 0.00 0.00 0.00 0.00 0.00
0.00 0.00 0.00 0.00 0.00 0.00 0.00 0.00 0.00 0.00 0.00 0.00 0.00 0.00 0.00 0.00 0.00 0.00 0.00 0.00 0.00 0.00 0.00 0.00 0.00 0.00 0.00 0.00 0.00 0.00 0.00 0.00 0.00 0.00 0.00 0.00 0.00 0.00 0.00 0.00 0.00 0.00 0.00 0.00
0.00 0.00 0.00 0.00 0.00 0.00 0.00 0.00 0.00 0.00 0.00 0.00 0.00 0.00 0.00 0.00 0.00 0.00 0.00 0.00 0.00 0.00 0.00 0.00 0.00 0.00 0.00 0.00 0.00 0.00 0.00 0.00 0.00 0.00 0.00 0.00 0.00 0.00 0.00 0.00 0.00 0.00 0.00 0.00
0.00 0.00 0.00 0.00 0.00 0.00 0.00 0.00 0.00 0.00 0.00 0.00 0.00 0.00 0.00 0.00 0.00 0.00 0.00 0.00 0.00 0.00 0.00 0.00 0.00 0.00 0.00 0.00 0.00 0.00 0.00 0.00 0.00 0.00 0.00 0.00 0.00 0.00 0.00 0.00 0.00 0.00 0.00 0.00
0.00 0.00 0.00 0.00 0.00 0.00 0.00 0.00 0.00 0.00 0.00 0.00 0.00 0.00 0.00 0.00 0.00 0.00 0.00 0.00 0.00 0.00 0.00 0.00 0.00 0.00 0.00 0.00 0.00 0.00 0.00 0.00 0.00 0.00 0.00 0.00 0.00 0.00 0.00 0.00 0.00 0.00 0.00 0.00
0.00 0.00 0.00 0.00 0.00 0.00 0.00 0.00 0.00 0.00 0.00 0.00 0.00 0.00 0.00 0.00 0.00 0.00 0.00 0.00 0.00 0.00 0.00 0.00 0.00 0.00 0.00 0.00 0.00 0.00 0.00 0.00 0.00 0.00 0.00 0.00 0.00 0.00 0.00 0.00 0.00 0.00 0.00 0.00
0.00 0.00 0.00 0.00 0.00 0.00 0.00 0.00 0.00 0.00 0.00 0.00 0.00 0.00 0.00 0.00 0.00 0.00 0.00 0.00 0.00 0.00 0.00 0.00 0.00 0.00 0.00 0.00 0.00 0.00 0.00 0.00 0.00 0.00 0.00 0.00 0.00 0.00 0.00 0.00 0.00 0.00 0.00 0.00
0.00 0.00 0.00 0.00 0.00 0.00 0.00 0.00 0.00 0.00 0.00 0.00 0.00 0.00 0.00 0.00 0.00 0.00 0.00 0.00 0.00 0.00 0.00 0.00 0.00 0.00 0.00 0.00 0.00 0.00 0.00 0.00 0.00 0.00 0.00 0.00 0.00 0.00 0.00 0.00 0.00 0.00 0.00 0.00
0.00 0.00 0.00 0.00 0.00 0.00 0.00 0.00 0.00 0.00 0.00 0.00 0.00 0.00 0.00 0.00 0.00 0.00 0.00 0.00 0.00 0.00 0.00 0.00 0.00 0.00 0.00 0.00 0.00 0.00 0.00 0.00 0.00 0.00 0.00 0.00 0.00 0.00 0.00 0.00 0.00 0.00 0.00 0.00
0.00 0.00 0.00 0.00 0.00 0.00 0.00 0.00 0.00 0.00 0.00 0.00 0.00 0.00 0.00 0.00 0.00 0.00 0.00 0.00 0.00 0.00 0.00 0.00 0.00 0.00 0.00 0.00 0.00 0.00 0.00 0.00 0.00 0.00 0.00 0.00 0.00 0.00 0.00 0.00 0.00 0.00 0.00 0.00
0.00 0.00 0.00 0.00 0.00 0.00 0.00 0.00 0.00 0.00 0.00 0.00 0.00 0.00 0.00 0.00 0.00 0.00 0.00 0.00 0.00 0.00 0.00 0.00 0.00 0.00 0.00 0.00 0.00 0.00 0.00 0.00 0.00 0.00 0.00 0.00 0.00 0.00 0.00 0.00 0.00 0.00 0.00 0.00
0.00 0.00 0.00 0.00 0.00 0.00 0.00 0.00 0.00 0.00 0.00 0.00 0.00 0.00 0.00 0.00 0.00 0.00 0.00 0.00 0.00 0.00 0.00 0.00 0.00 0.00 0.00 0.00 0.00 0.00 0.00 0.00 0.00 0.00 0.00 0.00 0.00 0.00 0.00 0.00 0.00 0.00 0.00 0.00
0.00 0.00 0.00 0.00 0.00 0.00 0.00 0.00 0.00 0.00 0.00 0.00 0.00 0.00 0.00 0.00 0.00 0.00 0.00 0.00 0.00 0.00 0.00 0.00 0.00 0.00 0.00 0.00 0.00 0.00 0.00 0.00 0.00 0.00 0.00 0.00 0.00 0.00 0.00 0.00 0.00 0.00 0.00 0.00
MSLP
1018.22 1018.58 1018.61 1018.79 1019.17 1019.52 1019.78 1019.53 1018.44 1016.93 1016.02 1015.67 1014.12 1012.65 1011.03 1009.94 1010.32 1010.13 1009.89 1009.71 1009.58 1009.21 1008.59 1008.40 1008.70 1008.60 1008.44 1008.29 1008.55 1008.77 1009.09 1009.49 1009.90 1010.27 1010.71 1011.04 1011.20 1011.39 1011.55 1011.69 1011.47 1011.78 1012.13 1012.48
1018.64 1018.52 1018.05 1018.50 1018.99 1019.28 1019.11 1018.49 1017.33 1015.68 1014.73 1014.38 1013.09 1011.56 1010.37 1009.62 1009.15 1008.99 1008.95 1009.09 1008.92 1008.73 1008.20 1007.89 1007.83 1007.97 1007.91 1007.85 1007.89 1007.99 1008.28 1008.66 1009.18 1009.55 1009.97 1010.25 1010.46 1010.73 1010.85 1011.27 1011.39 1011.35 1011.50 1011.97
1018.27 1017.65 1017.19 1017.89 1018.29 1018.42 1017.89 1017.50 1016.49 1015.70 1014.17 1013.39 1012.45 1010.63 1009.91 1009.18 1009.01 1008.73 1008.57 1008.43 1008.43 1008.15 1007.79 1007.32 1007.07 1007.03 1007.22 1007.33 1007.21 1007.34 1007.61 1008.00 1008.42 1008.81 1009.39 1009.69 1009.99 1010.30 1010.45 1010.63 1010.79 1010.99 1010.82 1011.25
1017.77 1017.02 1016.97 1017.07 1017.01 1017.39 1016.77 1015.53 1015.29 1014.79 1014.32 1012.92 1012.59 1010.67 1009.93 1009.86 1009.17 1008.87 1008.89 1008.51 1008.13 1007.71 1007.16 1006.96 1006.73 1006.50 1006.50 1006.53 1006.70 1006.82 1006.99 1007.36 1007.79 1008.18 1008.73 1009.04 1009.01 1009.14 1009.26 1009.49 1010.00 1010.23 1010.25 1010.68
1017.01 1016.41 1016.25 1016.06 1015.66 1015.73 1014.99 1014.60 1014.46 1013.97 1013.40 1012.89 1011.77 1012.20 1009.97 1009.87 1009.26 1009.11 1008.73 1008.57 1007.94 1007.16 1006.86 1006.37 1006.04 1005.91 1005.72 1005.99 1006.41 1006.73 1006.81 1007.03 1007.34 1007.81 1008.02 1008.34 1008.49 1008.70 1008.91 1009.23 1009.50 1009.83 1010.12 1010.51
1016.34 1015.89 1015.76 1015.19 1014.92 1014.65 1014.17 1014.17 1013.20 1012.49 1012.78 1012.17 1011.17 1011.57 1010.54 1010.55 1010.23 1008.94 1008.21 1007.84 1007.35 1006.63 1006.11 1005.81 1005.32 1005.15 1005.09 1005.35 1005.82 1006.18 1006.62 1006.88 1007.28 1007.52 1007.71 1007.84 1007.94 1008.37 1009.03 1008.62 1009.23 1009.48 1010.11 1010.45
1015.92 1015.30 1014.86 1014.75 1014.41 1013.66 1014.09 1013.95 1012.98 1012.30 1011.82 1011.41 1011.06 1011.38 1011.34 1011.29 1010.49 1009.20 1008.33 1007.58 1007.23 1006.90 1006.47 1006.17 1005.58 1004.79 1004.71 1005.00 1005.27 1005.56 1006.11 1006.45 1007.02 1007.25 1007.30 1006.98 1007.53 1008.19 1008.82 1008.92 1009.20 1010.01 1010.41 1010.35
1015.89 1014.94 1014.34 1013.99 1013.75 1013.31 1013.11 1013.18 1013.03 1012.39 1011.76 1011.34 1011.11 1011.49 1011.71 1011.77 1010.60 1009.69 1008.80 1008.15 1007.77 1007.59 1007.24 1006.39 1005.86 1005.26 1005.08 1005.01 1005.02 1004.94 1005.24 1005.39 1005.93 1006.66 1006.77 1007.08 1007.41 1008.01 1008.55 1008.77 1009.28 1009.90 1009.87 1010.64
1015.23 1014.32 1013.42 1013.10 1012.70 1013.04 1012.53 1012.65 1012.46 1012.09 1011.50 1011.37 1011.62 1011.78 1011.97 1011.75 1011.24 1010.29 1009.61 1009.07 1008.54 1008.07 1007.80 1007.13 1006.64 1006.40 1005.50 1004.05 1004.58 1004.93 1004.75 1004.35 1004.83 1005.64 1006.69 1007.78 1007.84 1008.29 1008.60 1008.79 1009.56 1010.19 1010.52 1010.81
1015.17 1014.24 1012.72 1012.23 1012.45 1012.37 1012.63 1012.37 1012.28 1012.06 1011.81 1011.39 1011.81 1012.31 1013.07 1012.76 1012.37 1011.47 1010.58 1010.13 1009.68 1009.15 1008.45 1007.80 1007.24 1006.70 1006.09 1004.77 1005.43 1005.51 1005.34 1005.55 1006.06 1006.55 1007.58 1008.62 1008.97 1009.09 1009.56 1009.95 1010.33 1010.52 1010.78 1010.98
1014.84 1014.46 1012.88 1012.14 1011.73 1011.63 1012.11 1012.11 1012.29 1012.17 1011.94 1011.91 1012.29 1013.12 1013.58 1013.53 1013.03 1012.26 1011.70 1011.18 1010.82 1010.42 1009.70 1009.25 1008.78 1007.73 1006.67 1006.76 1007.14 1007.33 1007.39 1007.72 1007.80 1008.24 1008.84 1009.21 1009.78 1010.06 1010.42 1010.73 1011.01 1011.16 1011.30 1011.39
1014.29 1014.02 1013.33 1011.89 1011.09 1011.28 1011.37 1011.49 1011.74 1012.09 1011.99 1012.14 1012.66 1013.70 1013.73 1013.34 1012.86 1012.58 1012.28 1011.79 1011.49 1011.02 1010.84 1010.51 1009.82 1008.99 1008.34 1008.62 1008.39 1008.53 1009.10 1008.95 1009.15 1009.69 1010.04 1010.64 1011.10 1011.29 1011.50 1011.82 1011.96 1012.05 1012.05 1011.83
1014.00 1014.04 1013.73 1012.22 1011.69 1011.52 1011.70 1011.49 1011.20 1011.40 1011.66 1012.35 1012.71 1013.75 1013.49 1013.14 1012.82 1012.68 1012.64 1012.44 1012.12 1011.89 1011.62 1011.47 1011.02 1011.07 1011.13 1011.02 1010.78 1010.75 1010.76 1010.76 1010.85 1010.78 1011.07 1011.55 1011.85 1012.07 1012.40 1012.47 1012.44 1012.41 1012.52 1012.59
1013.93 1014.47 1014.70 1014.47 1013.76 1013.26 1012.69 1011.76 1011.10 1011.25 1011.79 1012.33 1012.80 1013.50 1013.61 1013.16 1013.05 1012.94 1012.86 1013.00 1013.03 1012.97 1012.87 1012.57 1012.34 1012.48 1012.44 1012.29 1012.31 1012.38 1012.47 1012.43 1012.45 1012.56 1012.70 1012.98 1013.09 1013.17 1013.26 1013.31 1013.22 1013.15 1013.11 1012.94
1014.30 1014.94 1015.12 1014.87 1014.34 1013.68 1013.38 1012.78 1012.03 1011.86 1012.10 1012.44 1012.96 1013.07 1013.25 1013.17 1013.25 1013.21 1013.31 1013.30 1013.41 1013.66 1013.51 1013.59 1013.70 1013.78 1013.56 1013.56 1013.56 1013.44 1013.37 1013.30 1013.38 1013.51 1013.66 1013.85 1013.80 1013.77 1013.77 1013.73 1013.75 1013.63 1013.56 1013.53
1014.80 1015.52 1015.69 1015.28 1014.63 1014.15 1013.61 1012.89 1012.57 1012.63 1012.72 1012.94 1012.96 1012.96 1012.84 1013.00 1013.24 1013.30 1013.50 1013.71 1013.78 1013.85 1014.29 1014.56 1014.76 1014.85 1014.76 1014.73 1014.70 1014.51 1014.56 1014.50 1014.39 1014.54 1014.77 1014.83 1014.73 1014.62 1014.78 1014.75 1014.43 1014.28 1014.13 1013.92
1015.42 1016.02 1016.45 1016.08 1015.42 1014.61 1014.20 1013.52 1013.18 1013.08 1013.02 1013.08 1013.07 1012.70 1012.72 1013.03 1013.25 1013.46 1013.71 1013.91 1014.22 1014.68 1014.93 1015.05 1015.27 1015.41 1015.45 1015.50 1015.34 1015.37 1015.15 1014.95 1014.88 1015.08 1015.14 1015.02 1015.04 1015.09 1014.87 1014.73 1014.50 1014.51 1014.44 1014.27
1015.48 1016.29 1017.01 1017.01 1015.76 1015.10 1013.75 1013.22 1013.10 1013.02 1012.86 1012.90 1013.04 1012.97 1013.02 1013.25 1013.59 1013.67 1013.78 1014.15 1014.76 1015.10 1015.35 1015.59 1015.74 1015.94 1016.17 1016.24 1016.18 1016.18 1015.92 1015.78 1015.77 1015.84 1015.69 1015.76 1015.75 1015.61 1015.27 1015.26 1015.41 1015.46 1015.14 1015.04
1015.43 1016.09 1016.79 1017.20 1016.92 1015.26 1013.74 1013.16 1013.04 1013.01 1012.89 1012.73 1013.05 1013.27 1013.56 1013.82 1013.94 1014.10 1014.28 1014.54 1015.02 1015.41 1015.71 1015.99 1016.23 1016.53 1016.73 1016.69 1016.75 1016.64 1016.72 1016.53 1016.40 1016.37 1016.46 1016.27 1016.06 1015.99 1016.00 1016.00 1015.83 1015.48 1015.30 1015.14
1015.93 1016.10 1016.84 1016.94 1016.42 1015.03 1013.37 1012.75 1012.72 1012.86 1012.89 1012.39 1012.75 1013.37 1013.66 1013.95 1014.46 1014.67 1014.63 1014.91 1015.38 1015.65 1016.18 1016.56 1016.73 1016.93 1017.01 1016.96 1017.03 1017.08 1017.09 1016.92 1016.83 1016.66 1016.58 1016.51 1016.74 1016.71 1016.55 1016.51 1016.18 1015.96 1015.82 1015.60
1016.70 1016.94 1017.15 1017.06 1016.24 1014.39 1013.24 1012.80 1012.73 1013.09 1013.27 1012.60 1012.80 1013.15 1013.77 1014.27 1014.38 1014.57 1014.88 1015.43 1015.78 1016.07 1016.32 1016.59 1016.82 1017.22 1017.44 1017.41 1017.27 1017.25 1017.48 1017.54 1017.33 1017.13 1016.85 1016.82 1016.71 1016.54 1016.48 1016.18 1015.97 1015.87 1015.58 1015.57
1017.19 1017.34 1017.25 1016.78 1015.92 1014.47 1013.14 1013.22 1013.27 1012.80 1012.62 1012.69 1012.92 1013.14 1013.65 1014.05 1014.50 1014.95 1015.31 1015.67 1015.96 1016.07 1016.47 1016.65 1017.16 1017.41 1017.58 1017.81 1017.59 1017.63 1017.64 1017.42 1017.23 1016.94 1016.69 1016.40 1016.43 1016.21 1016.23 1016.26 1016.07 1015.99 1015.82 1015.70
1017.19 1016.80 1016.96 1016.52 1014.98 1013.70 1013.28 1012.99 1012.67 1012.70 1012.69 1012.78 1013.00 1013.41 1013.94 1014.54 1015.11 1015.46 1015.84 1016.17 1016.36 1016.62 1016.86 1017.21 1017.53 1017.76 1017.83 1017.76 1017.60 1017.74 1017.82 1017.53 1017.20 1016.97 1016.78 1016.69 1016.41 1016.27 1016.14 1016.08 1015.71 1015.51 1015.28 1015.00
1016.39 1016.12 1016.25 1015.78 1014.33 1013.75 1013.32 1012.92 1012.71 1012.83 1012.93 1012.99 1013.18 1013.46 1013.85 1014.36 1015.00 1015.57 1016.07 1016.48 1016.70 1016.96 1017.26 1017.50 1017.68 1017.85 1017.91 1017.83 1017.86 1017.92 1017.72 1017.31 1016.83 1016.53 1016.34 1016.28 1016.33 1016.10 1015.85 1015.62 1015.47 1015.41 1015.13 1014.59
1015.89 1015.81 1015.30 1014.82 1013.90 1013.49 1012.98 1012.60 1012.54 1012.80 1012.94 1013.25 1013.53 1013.80 1014.12 1014.53 1015.21 1015.77 1016.45 1016.96 1017.37 1017.68 1017.92 1018.00 1018.17 1018.33 1018.31 1017.98 1017.65 1017.35 1017.35 1017.71 1018.01 1017.82 1017.47 1017.11 1016.82 1016.57 1016.34 1016.13 1015.83 1015.41 1015.03 1014.55
1015.08 1014.10 1014.38 1013.41 1012.79 1012.85 1012.54 1012.23 1012.34 1012.90 1013.20 1013.43 1013.83 1014.33 1014.58 1014.85 1015.58 1016.28 1017.01 1017.32 1017.51 1017.84 1018.18 1018.38 1018.54 1018.48 1018.49 1018.55 1018.69 1018.58 1018.31 1018.04 1017.89 1017.64 1017.38 1017.25 1016.94 1016.60 1016.27 1015.82 1015.25 1014.92 1014.35 1013.77
Thickness
5485 5480 5468 5476 5478 5476 5470 5470 5474 5491 5501 5503 5510 5521 5537 5544 5541 5542 5544 5546 5549 5560 5569 5573 5578 5585 5593 5604 5605 5614 5619 5625 5629 5633 5636 5640 5645 5648 5651 5654 5656 5657 5657 5659
5476 5473 5485 5480 5475 5473 5478 5481 5486 5503 5510 5513 5519 5529 5540 5546 5549 5547 5545 5541 5538 5543 5553 5563 5565 5573 5586 5594 5598 5605 5611 5616 5620 5624 5631 5634 5638 5642 5646 5645 5646 5649 5651 5653
5468 5489 5495 5485 5477 5477 5482 5482 5488 5496 5512 5520 5524 5536 5533 5544 5540 5540 5537 5537 5537 5536 5542 5549 5557 5566 5574 5582 5592 5599 5603 5607 5614 5619 5622 5627 5632 5636 5640 5641 5643 5645 5648 5646
5474 5487 5489 5491 5484 5480 5481 5504 5505 5507 5507 5521 5521 5533 5537 5524 5532 5536 5521 5526 5530 5534 5537 5538 5546 5554 5564 5575 5581 5588 5595 5601 5608 5614 5618 5622 5630 5634 5639 5641 5639 5639 5642 5641
5479 5492 5496 5501 5507 5504 5506 5515 5511 5512 5513 5508 5526 5518 5514 5525 5533 5527 5526 5518 5527 5534 5536 5539 5540 5545 5556 5563 5569 5577 5585 5596 5604 5609 5615 5619 5626 5628 5631 5632 5632 5629 5630 5631
5487 5497 5498 5500 5505 5510 5516 5507 5516 5523 5515 5522 5522 5523 5523 5516 5516 5525 5532 5534 5538 5538 5544 5547 5549 5549 5555 5559 5566 5576 5584 5592 5597 5603 5610 5617 5622 5622 5621 5627 5624 5626 5622 5624
5492 5501 5506 5506 5507 5515 5509 5508 5517 5515 5532 5531 5529 5528 5514 5502 5506 5526 5531 5539 5539 5539 5541 5543 5548 5555 5556 5558 5566 5577 5581 5587 5592 5599 5608 5618 5618 5617 5615 5619 5621 5616 5615 5619
5484 5485 5507 5514 5513 5522 5522 5520 5519 5525 5532 5531 5529 5529 5519 5501 5516 5524 5528 5531 5533 5532 5535 5542 5549 5557 5560 5564 5570 5579 5584 5593 5599 5603 5609 5612 5614 5613 5612 5616 5617 5613 5616 5612
5511 5505 5522 5520 5527 5523 5526 5524 5522 5524 5527 5532 5528 5526 5508 5509 5508 5524 5525 5529 5530 5531 5531 5538 5545 5549 5559 5580 5582 5586 5595 5607 5611 5611 5608 5603 5607 5607 5609 5609 5608 5605 5604 5604
5510 5516 5528 5533 5524 5524 5521 5525 5526 5521 5530 5541 5532 5528 5511 5501 5499 5512 5526 5525 5526 5528 5533 5540 5545 5549 5559 5578 5578 5583 5592 5597 5597 5596 5593 5590 5592 5596 5597 5598 5598 5598 5598 5599
5512 5516 5530 5535 5533 5535 5527 5524 5521 5524 5526 5536 5535 5529 5498 5495 5496 5516 5523 5527 5527 5528 5531 5536 5543 5550 5560 5563 5566 5572 5576 5578 5582 5581 5583 5587 5586 5586 5588 5589 5590 5592 5593 5595
5517 5520 5517 5540 5548 5543 5540 5536 5535 5527 5535 5525 5525 5528 5498 5509 5522 5527 5527 5532 5533 5534 5534 5537 5542 5551 5558 5558 5564 5566 5565 5571 5573 5574 5576 5574 5575 5578 5578 5577 5579 5581 5583 5588
5526 5520 5517 5533 5542 5543 5535 5540 5544 5544 5537 5527 5521 5534 5518 5529 5536 5535 5532 5532 5533 5534 5535 5536 5541 5542 5543 5545 5550 5553 5557 5562 5562 5568 5569 5570 5570 5570 5569 5571 5574 5576 5577 5578
5531 5512 5516 5500 5525 5530 5527 5543 5550 5551 5540 5543 5540 5531 5523 5535 5539 5537 5533 5528 5527 5530 5530 5532 5534 5534 5537 5540 5541 5543 5545 5549 5551 5554 5555 5556 5559 5560 5562 5563 5565 5566 5568 5571
5532 5524 5509 5528 5530 5536 5536 5532 5546 5539 5547 5549 5543 5543 5534 5539 5540 5535 5534 5534 5533 5530 5531 5529 5527 5528 5532 5533 5535 5538 5541 5544 5546 5547 5549 5550 5553 5555 5556 5557 5558 5560 5561 5562
5527 5510 5524 5540 5533 5532 5542 5540 5541 5543 5544 5537 5538 5542 5543 5543 5540 5540 5536 5533 5532 5531 5527 5524 5523 5522 5525 5526 5529 5532 5533 5535 5538 5540 5538 5539 5541 5544 5543 5544 5549 5551 5552 5553
5532 5519 5509 5516 5520 5535 5544 5543 5543 5547 5545 5547 5550 5552 5544 5547 5544 5545 5539 5536 5531 5526 5523 5522 5520 5520 5520 5521 5524 5525 5528 5531 5533 5533 5534 5537 5537 5538 5541 5541 5543 5543 5543 5542
5536 5522 5501 5497 5520 5514 5548 5548 5550 5550 5549 5547 5549 5549 5548 5547 5536 5534 5537 5532 5526 5523 5520 5517 5517 5516 5515 5514 5515 5516 5520 5522 5523 5524 5526 5525 5525 5527 5529 5529 5527 5523 5524 5523
5534 5522 5511 5507 5485 5534 5554 5553 5550 5551 5556 5552 5548 5544 5539 5534 5536 5534 5529 5527 5523 5519 5517 5516 5514 5512 5509 5510 5509 5513 5512 5514 5514 5514 5513 5515 5516 5515 5513 5511 5511 5513 5511 5509
5529 5523 5520 5513 5521 5549 5555 5557 5554 5552 5537 5551 5547 5540 5537 5538 5532 5528 5527 5524 5518 5516 5512 5509 5509 5507 5507 5507 5507 5508 5506 5506 5506 5507 5506 5505 5501 5501 5500 5497 5497 5496 5494 5492
5521 5516 5519 5512 5510 5532 5542 5551 5552 5547 5547 5546 5542 5541 5534 5535 5531 5527 5521 5518 5514 5513 5511 5508 5507 5503 5501 5500 5500 5502 5499 5497 5497 5496 5497 5494 5492 5491 5487 5487 5485 5482 5481 5475
5522 5514 5512 5509 5514 5521 5544 5545 5542 5543 5545 5548 5543 5542 5540 5534 5526 5521 5519 5517 5515 5516 5511 5508 5502 5501 5498 5494 5496 5495 5492 5491 5488 5487 5484 5484 5479 5480 5475 5469 5464 5458 5454 5446
5518 5519 5516 5515 5525 5539 5538 5542 5546 5537 5542 5545 5543 5537 5530 5523 5520 5517 5515 5511 5511 5508 5504 5499 5496 5493 5490 5488 5486 5483 5478 5478 5477 5475 5473 5470 5468 5462 5456 5450 5445 5439 5431 5425
5528 5520 5519 5529 5542 5534 5536 5540 5543 5537 5540 5540 5538 5535 5530 5530 5519 5515 5509 5505 5503 5499 5495 5492 5488 5484 5481 5478 5475 5472 5470 5468 5468 5467 5463 5458 5450 5447 5440 5434 5425 5416 5409 5403
5524 5521 5522 5519 5528 5530 5535 5536 5540 5537 5534 5532 5529 5529 5526 5520 5514 5508 5500 5495 5489 5485 5480 5478 5473 5470 5468 5467 5466 5464 5460 5452 5444 5440 5436 5433 5428 5422 5417 5411 5404 5396 5387 5376
5515 5528 5521 5542 5538 5541 5541 5544 5537 5530 5527 5523 5520 5517 5513 5511 5504 5495 5487 5483 5480 5475 5470 5466 5463 5460 5456 5452 5446 5442 5439 5436 5432 5429 5424 5416 5411 5404 5398 5391 5386 5375 5360 5348